VE7SML-6 Weather Reports


time (UTC)temp
C
wind
direction
speed
KPH
gust
KPH
rain 1hr
cm
rain 24hr
cm
rain mn
cm
humidity
%
barometer
mb
20260505102131 8 180 0.0 0.0 0.00 0.00 0.00 50 1111.0
20260505101131 9 180 0.0 0.0 0.00 0.00 0.00 51 1111.0
20260505100631 9 180 0.0 0.0 0.00 0.00 0.00 51 1111.0
20260505100130 9 180 0.0 0.0 0.00 0.00 0.00 51 1111.0
20260505095630 10 180 0.0 0.0 0.00 0.00 0.00 51 1111.0
20260505095130 10 180 0.0 0.0 0.00 0.00 0.00 51 1111.0
20260505094629 10 157 0.0 0.0 0.00 0.00 0.00 51 1111.0
20260505093629 10 157 0.0 0.0 0.00 0.00 0.00 51 1111.0
20260505093128 10 157 0.0 3.2 0.00 0.00 0.00 51 1111.0
20260505092628 10 157 0.0 0.0 0.00 0.00 0.00 51 1111.0
20260505092128 10 157 0.0 0.0 0.00 0.00 0.00 51 1111.0
20260505090627 10 157 0.0 0.0 0.00 0.00 0.00 51 1111.0
20260505090127 10 157 0.0 0.0 0.00 0.00 0.00 10 1111.0
20260504202704 23 247 0.0 8.0 0.00 0.00 0.00 51 1111.0
20260504202204 23 247 0.0 8.0 0.00 0.00 0.00 52 1111.0
20260504201703 23 247 0.0 4.8 0.00 0.00 0.00 52 1111.0
20260504200203 22 247 0.0 6.4 0.00 0.00 0.00 52 1111.0
20260504195703 22 247 0.0 0.0 0.00 0.00 0.00 52 1111.0
20260504195203 22 247 0.0 6.4 0.00 0.00 0.00 52 1111.0
20260504194201 22 247 0.0 11.3 0.00 0.00 0.00 52 1111.0
20260504193201 22 247 0.0 11.3 0.00 0.00 0.00 53 1111.0
20260504192702 22 247 0.0 0.0 0.00 0.00 0.00 52 1111.0
20260504192201 22 247 0.0 9.7 0.00 0.00 0.00 52 1111.0
20260504190159 22 247 0.0 3.2 0.00 0.00 0.00 52 1111.0
20260504184658 22 247 0.0 6.4 0.00 0.00 0.00 52 1111.0
20260504183159 22 247 0.0 9.7 0.00 0.00 0.00 51 1111.0
20260504182657 22 247 0.0 12.9 0.00 0.00 0.00 51 1111.0
20260504181658 22 247 0.0 6.4 0.00 0.00 0.00 51 1111.0
20260504180657 22 22 0.0 0.0 0.00 0.00 0.00 51 1111.0
20260504175656 22 247 0.0 8.0 0.00 0.00 0.00 51 1111.0
20260504175159 21 247 0.0 3.2 0.00 0.00 0.00 51 1111.0
20260504174655 21 247 0.0 8.0 0.00 0.00 0.00 51 1111.0
20260504174155 21 0 0.0 0.0 0.00 0.00 0.00 51 1111.0
20260504173654 21 0 0.0 0.0 0.00 0.00 0.00 51 1111.0
20260504173154 21 247 0.0 6.4 0.00 0.00 0.00 50 1111.0
20260504171153 21 247 0.0 8.0 0.00 0.00 0.00 50 1111.0
20260504170653 20 247 0.0 0.0 0.00 0.00 0.00 51 1111.0
20260504170152 20 0 0.0 0.0 0.00 0.00 0.00 50 1111.0
20260504160149 17 0 0.0 4.8 0.00 0.00 0.00 50 1111.0
20260504150146 13 22 0.0 6.4 0.00 0.00 0.00 49 1111.0
20260504130639 9 0 0.0 8.0 0.00 0.00 0.00 50 1111.0
20260504110632 11 22 0.0 11.3 0.00 0.00 0.00 49 1111.0
20260504110132 11 22 4.8 8.0 0.00 0.00 0.00 49 1111.0